Wind_Speed
20 21 21 21 21 22 22 23 24 23 23 22 23 23 23 23 23 23 23 23 23 23 23 22 22 22 23 22 22 22 22 22 22 23 23 23 22 22 22 22 22 22 22 22
22 22 22 22 23 23 24 24 24 25 24 23 23 24 23 23 24 24 24 24 24 24 24 23 22 22 22 22 22 22 21 22 22 22 22 22 22 22 22 22 23 22 22 22
22 22 23 23 22 23 24 24 25 26 25 25 24 24 24 24 24 25 25 24 24 24 24 23 23 23 23 22 23 23 23 23 23 22 22 22 22 21 21 21 22 22 22 22
22 23 23 23 23 23 24 24 25 26 26 26 26 25 25 25 25 25 25 24 24 24 24 24 24 24 24 23 23 24 24 24 23 23 22 21 21 22 21 21 21 21 22 22
23 24 24 23 23 23 24 25 25 26 26 26 26 26 25 25 25 25 25 25 24 24 24 24 24 24 24 23 24 24 24 24 23 23 22 22 21 21 21 21 21 22 22 22
24 25 25 25 24 24 25 25 24 25 25 25 25 26 25 25 26 26 25 25 24 24 24 24 24 24 24 24 24 24 24 25 24 24 23 24 23 22 22 21 21 22 23 23
26 26 26 26 24 24 25 25 24 24 25 24 24 25 25 24 25 25 25 25 25 24 24 25 25 24 24 24 24 24 24 25 26 25 24 24 24 23 23 23 23 22 23 23
26 27 26 26 26 25 25 25 25 25 24 24 24 24 24 24 24 24 24 25 25 24 25 25 25 24 24 24 24 24 25 25 26 26 25 25 25 24 24 24 25 25 25 25
27 27 27 27 26 26 26 26 25 24 24 24 25 25 24 25 25 25 24 24 24 24 24 25 24 23 24 24 24 24 24 25 25 26 25 25 25 25 25 25 25 26 26 26
27 26 27 27 26 25 25 25 24 24 24 24 25 24 24 25 25 25 24 24 24 24 24 24 23 23 24 24 24 24 24 26 26 26 26 26 26 26 26 26 26 27 27 27
27 27 27 26 26 26 25 25 25 25 25 26 25 24 24 24 24 24 24 24 24 25 24 23 23 23 24 24 24 24 25 26 27 27 27 27 27 27 27 27 27 27 27 28
27 27 28 27 27 26 26 26 26 26 26 26 25 25 25 24 24 23 23 24 24 24 24 24 24 24 24 24 24 24 25 26 27 27 27 27 27 27 27 27 27 27 28 28
28 28 28 28 27 27 27 27 26 26 26 26 26 26 25 25 25 24 24 24 24 24 25 25 25 25 25 24 24 24 25 25 26 26 26 26 26 27 27 27 28 28 28 28
27 27 27 26 26 27 27 26 26 26 26 26 26 26 26 25 25 24 24 25 25 24 25 25 25 25 24 24 24 24 25 25 26 27 26 26 26 27 28 28 28 28 29 28
27 27 27 27 27 27 27 26 26 26 26 26 26 26 25 25 25 25 24 24 24 24 25 25 25 25 25 25 25 25 26 26 27 28 27 27 28 28 28 29 29 29 30 30
27 27 27 26 26 27 26 26 26 25 25 25 24 24 24 24 24 24 24 23 24 24 24 25 25 26 26 26 26 27 27 28 29 29 29 29 29 29 29 30 30 30 31 31
26 26 26 26 26 26 25 25 26 25 24 24 24 24 23 23 22 23 23 22 22 23 24 25 26 26 26 26 27 27 28 29 29 29 29 29 30 30 31 31 32 32 33 33
26 26 25 25 24 24 24 25 25 24 23 23 24 23 23 23 22 22 22 22 23 24 24 25 26 26 26 26 27 28 28 29 29 29 30 30 31 32 33 33 34 34 34 34
25 25 24 24 23 23 23 23 24 23 23 23 23 23 23 23 23 23 23 23 23 24 24 25 25 26 27 27 28 28 29 29 30 31 31 31 32 32 33 33 34 34 34 34
23 23 23 23 23 23 23 23 23 23 23 23 23 23 23 22 23 23 23 24 23 24 24 25 25 25 26 26 27 28 29 29 30 31 31 32 32 32 32 32 32 32 32 32
23 23 23 23 23 23 23 23 23 23 23 23 23 23 23 23 23 23 24 24 24 24 24 24 25 25 26 27 27 27 28 29 30 30 31 31 31 32 31 31 31 31 31 31
23 23 23 23 24 24 24 24 23 23 23 23 24 24 24 24 24 24 25 25 25 25 24 25 25 26 26 26 27 27 28 29 30 30 30 31 32 31 31 31 31 31 31 32
23 23 23 24 24 24 24 24 24 24 25 24 25 25 25 25 25 25 25 25 26 25 25 25 25 26 26 27 27 27 28 28 29 29 29 30 31 31 31 31 31 31 32 32
24 24 24 24 25 25 24 24 25 25 26 26 25 25 25 25 25 25 25 25 25 25 25 26 27 27 28 28 27 27 27 28 28 28 29 29 29 29 29 30 31 31 31 32
25 25 25 25 25 25 25 26 26 27 27 27 27 26 26 26 26 25 25 25 25 26 26 26 27 28 28 28 28 28 28 28 28 28 28 28 29 29 29 30 30 30 30 30
25 25 25 25 25 25 25 26 26 26 27 27 27 27 26 26 26 26 26 26 26 26 27 27 28 28 27 27 28 28 28 28 28 28 29 29 30 29 29 29 29 29 29 29
27 27 27 27 27 27 27 27 27 27 27 27 27 27 27 27 27 27 27 27 27 27 27 28 28 28 27 27 27 27 27 27 28 29 29 29 29 29 29 29 28 29 29 30
Wind_Direction
274 275 277 279 280 280 280 281 282 282 280 280 279 280 280 280 279 277 277 277 276 275 276 277 276 275 274 271 268 266 266 268 266 266 266 267 267 267 266 265 263 260 258 258
275 275 277 279 279 279 280 281 281 281 280 280 280 281 281 281 279 276 276 276 277 276 275 276 275 274 274 270 266 266 266 268 268 268 268 267 267 267 268 266 263 260 257 257
277 278 278 278 279 279 280 280 281 281 281 281 281 281 281 281 280 277 275 276 277 277 275 274 275 275 274 268 266 265 265 266 266 268 268 269 268 268 268 267 264 261 259 258
279 280 279 280 279 280 281 282 282 281 280 280 281 281 281 281 280 278 278 278 278 276 275 275 275 274 272 267 265 264 264 264 265 266 268 267 267 268 268 267 265 263 261 260
280 281 282 281 281 282 283 283 284 284 283 281 281 281 280 280 280 278 277 277 277 276 275 275 276 274 271 266 264 263 263 263 263 265 266 266 267 269 269 268 265 261 260 260
281 283 284 284 283 282 283 283 285 286 284 282 281 280 280 279 279 278 277 275 274 275 276 277 277 275 271 267 263 264 263 263 262 263 265 264 266 268 269 268 266 263 261 260
281 282 283 284 285 284 283 286 286 286 285 283 280 280 279 277 276 277 276 275 274 274 274 276 276 274 271 267 265 266 264 264 265 264 266 266 268 267 266 268 267 265 263 263
279 281 283 284 284 284 284 285 285 286 285 283 283 282 279 277 276 275 275 275 274 274 274 275 275 273 270 268 267 266 264 265 265 265 266 266 266 265 266 267 268 266 266 266
280 281 283 283 284 284 284 285 286 286 286 285 284 281 279 280 278 277 276 274 273 274 274 275 274 271 269 268 268 267 266 265 264 265 266 267 267 266 266 267 268 268 267 266
279 281 282 282 282 283 283 283 284 285 285 286 285 283 279 279 280 278 275 274 273 273 273 273 271 271 270 268 267 267 267 265 265 266 267 268 268 267 267 268 269 269 267 266
277 278 279 279 281 282 283 283 283 283 283 284 284 283 281 280 280 278 276 276 276 275 272 270 270 270 271 271 270 269 268 267 267 267 268 268 267 267 268 269 269 269 268 268
276 276 278 279 280 281 281 283 283 283 283 283 283 283 282 280 279 278 275 275 276 273 271 270 271 272 272 271 270 269 269 269 269 269 271 271 270 269 270 270 269 269 268 268
276 277 278 280 281 281 281 282 281 280 281 282 282 281 281 279 278 277 274 274 274 271 270 271 272 273 273 272 272 271 270 271 271 272 273 272 272 271 272 272 270 269 269 270
275 277 279 280 281 281 280 281 280 279 279 280 281 280 279 279 277 276 275 274 271 269 269 270 272 272 272 273 273 272 271 271 272 273 275 274 273 273 274 273 273 271 270 271
275 277 278 279 278 279 279 280 279 278 279 280 280 279 278 277 277 277 276 275 270 270 269 270 271 272 273 273 272 271 271 272 273 274 275 275 275 275 275 274 274 272 272 272
275 277 278 277 278 278 279 279 279 278 278 278 278 277 277 276 276 277 278 276 271 271 271 271 273 273 273 273 272 272 272 273 275 276 276 275 275 276 276 275 275 274 274 273
274 275 277 277 278 278 278 278 278 278 277 277 276 276 276 274 275 276 278 275 274 273 272 273 274 273 273 273 273 274 274 275 277 278 277 277 276 276 276 276 277 276 275 275
272 274 276 277 277 278 278 278 277 276 276 277 276 276 275 276 278 278 277 275 276 276 275 275 275 275 275 275 275 275 276 277 278 279 278 278 278 278 279 278 278 277 276 276
273 274 275 276 277 277 277 277 276 275 277 276 275 275 276 277 280 280 276 275 277 278 276 276 277 276 277 277 276 277 278 279 280 281 280 280 280 280 280 279 279 279 278 278
271 271 273 274 275 277 278 277 275 275 276 275 276 277 279 278 278 279 278 277 278 279 278 277 277 277 278 278 280 280 281 281 281 282 282 281 282 282 281 280 280 280 279 278
267 268 270 273 275 276 277 276 277 277 277 276 277 277 278 279 278 278 280 280 280 280 281 280 280 280 280 280 281 282 283 283 283 283 283 282 283 283 281 281 281 281 280 279
266 268 270 272 274 277 276 276 276 277 276 276 277 276 276 277 278 278 280 281 282 281 282 282 283 283 284 284 283 283 284 285 285 285 285 284 284 283 282 282 281 280 280 280
268 270 272 273 274 276 276 275 276 277 276 277 277 277 277 277 278 279 280 282 282 282 282 283 284 285 285 286 285 284 286 287 287 287 287 287 286 284 283 282 281 281 281 281
271 272 272 273 274 274 274 274 276 277 277 277 279 279 280 281 281 281 281 281 282 284 284 284 284 284 285 285 285 286 287 289 290 289 289 288 287 286 285 284 283 282 282 283
270 272 273 274 275 275 274 274 275 277 277 277 279 280 280 280 281 281 281 281 283 285 286 286 286 286 285 284 284 286 287 287 289 289 289 289 288 287 286 285 284 283 283 284
272 273 274 276 277 276 275 275 275 276 277 277 278 279 279 280 282 282 283 283 282 284 285 286 287 288 287 287 287 286 285 286 288 287 288 289 288 288 288 286 285 284 284 286
273 274 275 276 276 277 277 277 276 278 278 278 279 279 280 280 281 282 282 282 282 282 284 286 287 288 287 288 289 288 287 287 288 288 290 290 289 288 288 287 286 286 286 287
Height
5805 5805 5804 5803 5803 5802 5801 5800 5799 5798 5797 5796 5795 5793 5792 5791 5790 5789 5788 5788 5787 5786 5786 5785 5784 5783 5783 5782 5782 5782 5782 5782 5783 5783 5782 5782 5782 5782 5782 5782 5783 5783 5783 5783
5799 5798 5797 5797 5796 5795 5794 5793 5792 5791 5790 5789 5788 5787 5785 5784 5783 5782 5781 5780 5780 5779 5778 5778 5777 5776 5776 5775 5775 5775 5776 5776 5776 5776 5776 5776 5776 5775 5775 5775 5775 5776 5776 5777
5793 5792 5791 5791 5790 5788 5787 5786 5785 5783 5783 5781 5780 5779 5778 5777 5775 5774 5774 5773 5772 5771 5771 5770 5769 5769 5768 5768 5768 5769 5769 5770 5770 5770 5770 5770 5770 5769 5769 5769 5768 5769 5769 5770
5786 5786 5784 5786 5782 5781 5780 5779 5777 5776 5775 5774 5773 5772 5770 5769 5768 5767 5766 5765 5765 5764 5763 5763 5762 5761 5761 5761 5761 5762 5763 5763 5763 5763 5763 5763 5763 5763 5763 5762 5762 5762 5762 5763
5779 5778 5777 5777 5775 5774 5773 5771 5770 5768 5767 5766 5765 5764 5763 5761 5760 5759 5759 5758 5757 5756 5756 5755 5754 5753 5753 5753 5754 5755 5756 5756 5756 5757 5757 5757 5757 5757 5756 5756 5755 5755 5756 5756
5771 5770 5770 5771 5768 5766 5766 5764 5763 5761 5759 5758 5757 5756 5756 5754 5753 5752 5751 5750 5749 5749 5748 5747 5747 5746 5746 5746 5747 5747 5748 5749 5749 5750 5750 5750 5750 5750 5749 5749 5749 5749 5749 5749
5764 5762 5762 5762 5760 5759 5759 5758 5755 5753 5751 5750 5748 5748 5747 5746 5745 5744 5743 5742 5741 5741 5740 5740 5739 5739 5738 5739 5739 5740 5740 5741 5742 5742 5742 5742 5742 5742 5742 5742 5742 5742 5741 5742
5757 5756 5757 5754 5753 5752 5751 5748 5746 5745 5743 5742 5741 5739 5738 5738 5737 5736 5735 5734 5733 5733 5733 5732 5731 5731 5731 5732 5732 5732 5733 5734 5734 5734 5735 5735 5735 5735 5735 5734 5734 5734 5734 5734
5750 5750 5748 5746 5744 5743 5742 5740 5739 5737 5736 5735 5733 5732 5731 5730 5729 5728 5727 5726 5726 5726 5725 5725 5724 5724 5724 5724 5724 5725 5725 5726 5726 5727 5727 5727 5727 5727 5727 5726 5726 5726 5726 5726
5741 5740 5739 5737 5736 5735 5734 5732 5731 5730 5729 5727 5726 5724 5723 5722 5721 5720 5719 5718 5718 5718 5718 5717 5717 5716 5716 5717 5717 5717 5718 5718 5718 5719 5719 5719 5719 5719 5718 5718 5718 5717 5717 5717
5732 5732 5730 5729 5728 5727 5726 5725 5723 5722 5721 5719 5718 5716 5715 5714 5713 5712 5711 5711 5710 5710 5710 5710 5710 5709 5709 5709 5709 5709 5710 5710 5710 5710 5710 5710 5710 5710 5710 5709 5709 5709 5709 5709
5724 5723 5722 5721 5720 5719 5718 5717 5716 5714 5713 5711 5710 5708 5707 5706 5705 5704 5703 5703 5702 5702 5702 5702 5702 5702 5702 5702 5702 5702 5702 5701 5701 5701 5701 5701 5701 5701 5700 5700 5700 5699 5699 5699
5715 5714 5713 5712 5711 5710 5709 5708 5707 5706 5704 5703 5702 5700 5699 5698 5697 5696 5695 5695 5694 5694 5694 5694 5694 5694 5694 5694 5694 5694 5694 5693 5693 5693 5692 5692 5692 5692 5692 5691 5690 5690 5690 5689
5706 5706 5705 5704 5703 5702 5700 5699 5698 5697 5696 5695 5694 5692 5691 5690 5689 5688 5687 5687 5686 5686 5686 5686 5686 5686 5686 5686 5686 5685 5685 5685 5684 5684 5683 5683 5683 5683 5682 5682 5681 5681 5680 5680
5697 5697 5696 5695 5694 5693 5692 5691 5690 5689 5687 5686 5685 5684 5683 5682 5681 5680 5680 5679 5678 5678 5678 5678 5678 5677 5677 5677 5677 5677 5676 5676 5675 5675 5674 5674 5674 5673 5673 5672 5671 5671 5670 5670
5688 5687 5687 5686 5685 5684 5683 5682 5681 5680 5679 5678 5677 5676 5675 5674 5673 5672 5672 5671 5671 5670 5670 5670 5669 5669 5669 5668 5668 5668 5667 5667 5666 5665 5664 5664 5664 5663 5663 5662 5661 5660 5660 5659
5679 5678 5678 5677 5676 5675 5674 5673 5672 5671 5671 5670 5669 5668 5667 5666 5666 5665 5664 5663 5663 5662 5662 5662 5661 5660 5660 5659 5659 5658 5658 5657 5656 5655 5655 5654 5653 5652 5652 5651 5650 5649 5648 5648
5670 5670 5669 5669 5668 5667 5666 5665 5664 5663 5662 5662 5661 5660 5659 5659 5658 5657 5657 5656 5655 5654 5654 5653 5653 5652 5651 5651 5650 5649 5648 5647 5646 5645 5644 5643 5642 5641 5640 5639 5638 5637 5636 5635
5661 5661 5661 5660 5659 5658 5657 5657 5656 5655 5654 5654 5653 5652 5652 5651 5650 5650 5649 5648 5647 5647 5646 5645 5644 5644 5643 5642 5641 5640 5639 5637 5636 5635 5634 5633 5631 5630 5628 5627 5626 5624 5623 5622
5653 5653 5653 5652 5652 5651 5650 5649 5648 5648 5647 5646 5645 5644 5644 5643 5643 5642 5641 5640 5640 5639 5638 5637 5636 5635 5634 5633 5631 5630 5629 5627 5626 5624 5623 5621 5620 5618 5617 5615 5614 5612 5611 5610
5645 5645 5645 5644 5644 5643 5642 5641 5641 5640 5639 5638 5637 5637 5636 5635 5635 5634 5633 5633 5632 5630 5629 5628 5627 5626 5625 5623 5622 5620 5619 5617 5615 5614 5612 5610 5609 5607 5605 5604 5603 5601 5600 5599
5637 5636 5636 5636 5636 5635 5635 5634 5633 5632 5631 5631 5630 5629 5629 5628 5627 5626 5625 5624 5623 5622 5621 5620 5618 5617 5615 5614 5612 5611 5609 5607 5605 5603 5601 5599 5598 5596 5594 5593 5591 5590 5589 5588
5628 5628 5628 5628 5628 5627 5626 5626 5625 5624 5624 5623 5622 5621 5620 5620 5619 5618 5617 5616 5615 5613 5612 5611 5609 5608 5606 5605 5603 5601 5599 5597 5595 5593 5590 5588 5586 5584 5583 5581 5580 5579 5578 5576
5620 5620 5619 5619 5619 5618 5618 5617 5617 5616 5615 5614 5614 5613 5612 5611 5610 5609 5608 5607 5606 5604 5603 5602 5600 5599 5597 5595 5593 5591 5589 5587 5585 5583 5580 5578 5576 5574 5572 5570 5569 5567 5566 5565
5611 5611 5611 5610 5610 5610 5609 5609 5608 5607 5606 5606 5605 5604 5603 5602 5601 5600 5599 5598 5597 5596 5594 5593 5591 5589 5587 5585 5583 5581 5579 5577 5575 5573 5571 5568 5566 5564 5562 5560 5558 5557 5555 5554
5602 5602 5602 5602 5601 5601 5600 5600 5599 5598 5597 5597 5596 5595 5594 5593 5592 5591 5590 5589 5588 5586 5585 5583 5582 5580 5578 5576 5573 5571 5569 5568 5565 5563 5561 5559 5557 5554 5552 5550 5548 5546 5545 5543
5593 5593 5593 5593 5592 5591 5591 5590 5590 5589 5588 5587 5587 5586 5585 5584 5583 5582 5581 5580 5578 5577 5576 5574 5572 5570 5568 5566 5564 5562 5560 5558 5556 5554 5551 5549 5547 5545 5543 5540 5538 5536 5535 5533